Fort Myers, FL

1:29 AM EDT on March 26, 2017 (GMT -0400)
Page

Weather History for KFMY - December, 2011

Change the Weather History Date:

Wednesday, December 21, 2011

  Actual Average Record
Temperature  
Mean Temperature 72 °F 66 °F  
Max Temperature 83 °F 76 °F 87 °F (1990)
Min Temperature 60 °F 55 °F 35 °F (2000)
Degree Days  
Heating Degree Days 0 3  
Month to date heating degree days 10 41  
Since 1 July heating degree days 14 59  
Cooling Degree Days 7 4  
Month to date cooling degree days 124 91  
Year to date cooling degree days 4218 3954  
Growing Degree Days 21 (Base 50)    
Moisture  
Dew Point 60 °F    
Average Humidity 74    
Maximum Humidity 97    
Minimum Humidity 43    
Precipitation  
Precipitation 0.00 in 0.06 in 2.38 in (1994)
Month to date precipitation 0.26 1.09  
Year to date precipitation 65.67 55.31  
Sea Level Pressure  
Sea Level Pressure 30.12 in    
Wind  
Wind Speed 5 mph (SSE)    
Max Wind Speed 16 mph    
Max Gust Speed 22 mph    
Visibility 10 miles    
Events      
T = Trace of Precipitation, MM = Missing Value Source: NWS Daily Summary

Daily Weather History Graph

Daily Weather History Graph

Search for Another Location

Airport or City:

Trip Planner

Search our weather history database for the weather conditions in past years. The results will help you decide how hot, cold, wet, or windy it might be!

Date:

Astronomy

Dec. 21, 2011 Rise Set
Actual Time 7:11 AM EST 5:39 PM EST
Civil Twilight 6:45 AM EST 6:05 PM EST
Nautical Twilight 6:17 AM EST 6:33 PM EST
Astronomical Twilight 5:48 AM EST 7:02 PM EST
Moon 3:49 AM EST (12/21) 2:53 PM EST (12/21)
Length of Visible Light 11h 19m
Length of Day
10h 28m
Waning Crescent, 12% of the Moon is Illuminated
Dec 21
Waning Crescent
Dec 24
New
Jan 1
First Quarter
Jan 9
Full
Jan 16
Last Quarter

Hourly Weather History & Observations

Time (EST) Temp. Heat Index Dew Point Humidity Pressure Visibility Wind Dir Wind Speed Gust Speed Precip Events Conditions
12:53 AM 68.0 °F - 61.0 °F 78% 30.12 in 10.0 mi SE 8.1 mph - N/A   Clear
1:53 AM 66.0 °F - 61.0 °F 84% 30.12 in 10.0 mi SE 4.6 mph - N/A   Clear
2:53 AM 64.0 °F - 60.1 °F 87% 30.12 in 10.0 mi Calm Calm - N/A   Partly Cloudy
3:53 AM 62.1 °F - 59.0 °F 90% 30.12 in 10.0 mi Calm Calm - N/A   Clear
4:53 AM 61.0 °F - 59.0 °F 93% 30.12 in 10.0 mi ESE 3.5 mph - N/A   Clear
5:53 AM 61.0 °F - 59.0 °F 93% 30.12 in 10.0 mi Calm Calm - N/A   Clear
6:53 AM 60.1 °F - 57.9 °F 93% 30.13 in 9.0 mi Calm Calm - N/A   Clear
7:53 AM 61.0 °F - 59.0 °F 93% 30.14 in 8.0 mi East 3.5 mph - N/A   Clear
8:53 AM 68.0 °F - 62.1 °F 81% 30.16 in 10.0 mi SE 4.6 mph - N/A   Clear
9:53 AM 73.9 °F - 63.0 °F 68% 30.17 in 10.0 mi SSE 9.2 mph - N/A   Clear
10:53 AM 78.1 °F - 59.0 °F 52% 30.16 in 10.0 mi South 13.8 mph 19.6 mph N/A   Clear
11:53 AM 80.1 °F 80.7 °F 59.0 °F 48% 30.14 in 10.0 mi South 10.4 mph 18.4 mph N/A   Clear
12:53 PM 81.0 °F 81.1 °F 57.9 °F 45% 30.10 in 10.0 mi SSE 9.2 mph - N/A   Clear
2:53 PM 82.9 °F 82.4 °F 57.0 °F 41% 30.06 in 10.0 mi Variable 4.6 mph - N/A   Clear
3:53 PM 80.1 °F 80.9 °F 60.1 °F 50% 30.06 in 10.0 mi SW 6.9 mph - N/A   Clear
4:53 PM 78.1 °F - 62.1 °F 58% 30.07 in 10.0 mi SSW 6.9 mph - N/A   Clear
5:53 PM 73.9 °F - 62.1 °F 66% 30.08 in 10.0 mi SSW 4.6 mph - N/A   Clear
6:53 PM 72.0 °F - 62.1 °F 71% 30.10 in 10.0 mi South 3.5 mph - N/A   Clear
7:53 PM 70.0 °F - 63.0 °F 78% 30.11 in 10.0 mi South 3.5 mph - N/A   Clear
8:53 PM 68.0 °F - 62.1 °F 81% 30.12 in 10.0 mi Calm Calm - N/A   Clear
9:53 PM 66.9 °F - 62.1 °F 84% 30.12 in 10.0 mi SE 3.5 mph - N/A   Clear
10:53 PM 66.9 °F - 61.0 °F 81% 30.12 in 10.0 mi Calm Calm - N/A   Clear
11:53 PM 66.9 °F - 61.0 °F 81% 30.11 in 10.0 mi SSE 3.5 mph - N/A   Clear